sat.trackr.live / text

‹ back to catalog

STARLINK-37060

NORAD 68150 · 2026-049J

PAYLOAD ACTIVE UNKNOWN

§ Identity

Operator
Country
US
Launch date
2026-03-13
Launch site
AFWTR
Launch vehicle
Mass (kg)
RCS (m²)

Purposes: comms

External: N2YO · Heavens-Above · Gunter

§ Orbital elements

Epoch: 2026-09-19T15:39:36.689472Z

Period
93.91 min
Inclination
97.2861°
Eccentricity
0.0001696
Mean motion
15.33461189 rev/d
Perigee alt
464.3 km
Apogee alt
466.7 km
Semi-major
6,843.6 km
B*
3.4450e-4
RAAN
282.6599°
Arg perigee
348.8811°
Mean anomaly
11.2394°
Rev number
2,937

§ Raw data

STARLINK-370601 68150U 26049J   26262.65250798  .00011069  00000+0  34450-3 0  99962 68150  97.2861 282.6599 0001696 348.8811  11.2394 15.33461189 29373

JSON: /api/v1/satellites/68150 · /tle

For live sub-satellite position, see the globe view (requires WebGL).

§ Visibility from observer

Set your observer location to see the next 7 days of passes ≥ 10°. The values pass through the URL so the page stays shareable.

No JS? Fill the form by hand. The geolocation button needs JavaScript.